Regional Weather Roundup
Issued by NWS

Home | Current Version | Previous Version | Text Only | Print | Product List | Glossary Off
Versions: 1 2 3 4 5 6 7 8 9 10 11 12 13 14 15 16 17 18 19 20 21 22 23 24 25 26 27 28 29 30 31 32 33 34 35 36 37 38 39 40 41 42 43 44 45 46 47 48 49 50

000
ASUS43 KDTX 090301
RWRMI
MICHIGAN HOURLY REGIONAL WEATHER ROUNDUP
NATIONAL WEATHER SERVICE DETROIT/PONTIAC MI
1000 PM EST MON FEB 08 2016

NOTE: "FAIR" INDICATES FEW OR NO CLOUDS BELOW 12,000 FEET WITH NO
SIGNIFICANT WEATHER AND/OR OBSTRUCTION TO VISIBILITY.

MIZ047>049-052>055-059>063-066>070-074>076-081>083-090400-
SOUTHEAST LOWER MICHIGAN

CITY           SKY/WX    TMP DP  RH WIND       PRES   REMARKS
ADRIAN         CLOUDY    33  27  78 NW12G22   29.61F WCI  24
ALMA           CLOUDY    34  27  76 W7        29.59S WCI  28
ANN ARBOR      CLOUDY    32  28  85 W9        29.59S WCI  24
BAD AXE        LGT SNOW  33  32  96 NW7       29.53F WCI  27
CARO           CLOUDY    36  28  75 W9        29.54S WCI  29
DETROIT CITY   CLOUDY    37  27  67 NW10      29.58S WCI  30
DETROIT        CLOUDY    35  28  75 W8        29.59F WCI  29
FLINT          CLOUDY    37  28  70 W8        29.57S WCI  31
GROSSE ILE     CLOUDY    36  30  80 CALM      29.58S
HILLSDALE      CLOUDY    30  29  96 W13G18    29.60S WCI  20
HOWELL         PTCLDY    32  30  92 W8        29.57F WCI  25

CITY           SKY/WX    TMP DP  RH WIND       PRES   REMARKS
JACKSON        CLOUDY    33  28  81 W9        29.59F WCI  25
LAMBERTVILLE   MOCLDY    32  28  85 W8        29.62S WCI  25
LANSING        FLURRIES  34  29  82 W9        29.60S WCI  27
LAPEER         CLOUDY    36  30  79 W7        29.55S WCI  30
MASON          FLURRIES  33  30  89 W7        29.59S WCI  27
MONROE         CLOUDY    34  29  82 W8        29.59S WCI  27
MT. CLEMENS    CLOUDY    38  28  69 W10       29.55S WCI  30
PONTIAC        CLOUDY    34  27  75 W8        29.55F WCI  27
PORT HOPE        N/A     33  32  96 NW8       29.52S WCI  26
PORT HURON     MIX PCPN  34  32  93 SW3       29.55F
TRI CITIES     CLOUDY    37  26  64 W9        29.57S WCI  30
MIDLAND        CLOUDY    35  26  68 NW5       29.57S WCI  31
TROY           CLOUDY    37  29  71 W7        29.58F WCI  32
SAGINAW HB     CLOUDY    36  30  80 W9        29.56S WCI  29
$$
MIZ043>046-050>051-056>058-064>065-071>073-077>080-090400-
SOUTHWEST LOWER MICHIGAN

CITY           SKY/WX    TMP DP  RH WIND       PRES   REMARKS
BATTLE CREEK   LGT SNOW  31  28  89 W10       29.63R FOG     WCI  22
BENTON HARBOR  LGT SNOW  30  27  88 W10       29.68F FOG     WCI  21
BIG RAPIDS     CLOUDY    34  31  88 N9        29.58F WCI  26
COLDWATER      LGT SNOW  30  28  92 W14       29.63S WCI  20
FREMONT        CLOUDY    32  32 100 N9        29.61S WCI  24
HOLLAND        CLOUDY    33  30  88 W8        29.63F WCI  26
GRAND RAPIDS   LGT SNOW  33  31  92 W8        29.61F FOG     WCI  26
IONIA          CLOUDY    33  31  92 W8        29.59F WCI  25
KALAMAZOO      LGT SNOW  30  26  85 W13       29.64S FOG     WCI  20
LUDINGTON      CLOUDY    29  27  92 N18       29.66R WCI  17
MARSHALL       CLOUDY    32  29  90 W12       29.61S WCI  23
MOUNT PLEASANT CLOUDY    36  27  71 NW3       29.57F
MUSKEGON       LGT SNOW  34  30  85 NW5       29.63S FOG     WCI  30
SOUTH HAVEN    LGT SNOW  32  30  92 W9        29.66F WCI  24
$$
MIZ016>042-090400-
NORTHERN LOWER MICHIGAN

CITY           SKY/WX    TMP DP  RH WIND       PRES   REMARKS
ALPENA         FLURRIES  35  31  85 N12       29.58S WCI  27
BEAVER ISLAND  CLOUDY    24  20  85 N10G18    29.68S WCI  13
BELLAIRE       CLOUDY    29  25  85 N7        29.65S WCI  22
CADILLAC       CLOUDY    29  27  92 N10G18    29.59S WCI  20
CHARLEVOIX     CLOUDY    27  24  89 N15G21    29.69S WCI  16
FRANKFORT      CLOUDY    27  22  84 N12       29.68S WCI  16
GAYLORD        CLOUDY    30  27  88 NW5       29.58S WCI  25
GRAYLING       CLOUDY    30  28  93 NW10      29.59S WCI  21
HARBOR SPRINGS FLURRIES  27  24  87 NW9G16    29.64S WCI  18
HOUGHTON LAKE  CLOUDY    32  29  88 NW9       29.57S WCI  24
MANISTEE       CLOUDY    28  21  74 N14G21    29.67S WCI  17
OSCODA         LGT RAIN  34  33  96 N6        29.55S WCI  28
PELLSTON       CLOUDY    27  23  85 NW13      29.64F WCI  16
ROGERS CITY    CLOUDY    32  30  92 NW13G21   29.61S FOG     WCI  22
TRAVERSE CITY  CLOUDY    29  23  78 N12       29.65S WCI  19
$$
MIZ007>008-015-090400-
EASTERN UPPER MICHIGAN

CITY           SKY/WX    TMP DP  RH WIND       PRES   REMARKS
KINROSS        CLOUDY    27  27 100 NW13G21   29.62F WCI  16
MACKINAC ISLAN CLOUDY    27  26  98 NW12      29.63S WCI  17
NEWBERRY       CLOUDY    23  20  87 NW12      29.66S WCI  11
S. S. MARIE    CLOUDY    28  24  85 NW10G18   29.63S WCI  19
$$
MIZ004>006-011>014-085-090400-
CENTRAL UPPER MICHIGAN

CITY           SKY/WX    TMP DP  RH WIND       PRES   REMARKS
MANISTIQUE     CLOUDY    19  13  76 N15G23    29.69F WCI   5
ESCANABA       CLOUDY    18   7  62 NW10G17   29.73F WCI   6
MENOMINEE      CLOUDY    18  10  73 N9        29.74F WCI   6
SAWYER-GWINN   LGT SNOW  12   9  85 NW13      29.71F WCI  -3
$$
MIZ001>003-009>011-084-090400-
WESTERN UPPER MICHIGAN

CITY           SKY/WX    TMP DP  RH WIND       PRES   REMARKS
IRON MOUNTAIN  MIX PCPN  15   7  70 NW13      29.72S WCI   1
HOUGHTON       LGT SNOW  12   6  77 N13       29.77R WCI  -3
COPPER HARBOR    N/A     17  13  84 NE25G32   29.77F WCI  -1
IRONWOOD       CLOUDY    12  10  92 NW15G21   29.79S WCI  -4
$$

ABBREVIATIONS USED IN REMARKS
   TC - TEMPERATURE IN CELSIUS
  WCI - WIND CHILL INDEX
   HX - HEAT INDEX
  VSB - VISIBILITY




USA.gov is the U.S. government's official web portal to all federal, state and local government web resources and services.